Terminal Aerodrome Forecast
Issued by NWS

Current Version | Previous Version | Text Only | Print | Product List | Glossary Off
Versions: 1 2 3 4 5 6 7 8 9 10 11 12 13 14 15 16 17

000
FTUS41 KPBZ 231029 AAA
TAFHLG
TAF AMD
KHLG 231029Z 2310/2406 19006KT 3SM -SHRA BR SCT005 OVC015
     FM231200 21008KT 5SM -SHRA BR OVC008
     FM231700 23012G20KT 5SM SHRA VCTS OVC025CB
     FM240000 23008KT 3SM SHRA BR OVC008
     FM240400 26004KT P6SM VCSH OVC006=

USA.gov is the U.S. government's official web portal to all federal, state and local government web resources and services.